Tracking 26955 objects as of 2-Feb-2023
HD Live streaming from Space Station
objects crossing your sky now

ONEWEB-0334

Track ONEWEB-0334 now!
10-day predictions
ONEWEB-0334 is classified as:


NORAD ID: 49200
Int'l Code: 2021-083Q
Perigee: 1,187.4 km
Apogee: 1,190.4 km
Inclination: 87.9 °
Period: 109.0 minutes
Semi major axis: 7559 km
RCS: Unknown
Launch date: September 14, 2021
Source: United Kingdom (UK)
Launch site: TYURATAM MISSILE AND SPACE COMPLEX (TTMTR)
Your satellite tracking list
Your tracking list is empty




NASA's NSSDC Master Catalog

Two Line Element Set (TLE):
1 49200U 21083Q   23033.36396326  .00000048  00000-0  86142-4 0  9995
2 49200  87.9342 159.4219 0001955  73.4643 286.6705 13.20773086 74325
Source of the keplerian elements: AFSPC